Regional Weather Roundup
Issued by NWS Green Bay, WI

Home | Current Version | Previous Version | Text Only | Print | Product List | Glossary On
Versions: 1 2 3 4 5 6 7 8 9 10 11 12 13 14 15 16 17 18 19 20 21 22 23 24 25 26 27 28 29 30 31 32 33 34 35 36 37 38 39 40 41 42 43 44 45 46 47 48 49 50
000
ASUS43 KGRB 291759
RWRGRB

NORTH-CENTRAL AND NORTHEAST WISCONSIN REGIONAL WEATHER ROUNDUP
NATIONAL WEATHER SERVICE GREEN BAY WI
100 PM CDT TUE JUL 29 2014

WIZ005-009-010>012-018-019-291900-
NORTH CENTRAL WISCONSIN

CITY           SKY/WX    TMP DP  RH WIND       PRES   REMARKS
IRONWOOD       NOT AVBL
MANITOWISH WTR NOT AVBL
ARBOR VITAE    NOT AVBL
EAGLE RIVER    NOT AVBL
LAND O LAKES   NOT AVBL
RHINELANDER    MOSUNNY   71  55  56 W8        30.04F
PHILLIPS       NOT AVBL
ANTIGO         NOT AVBL
TOMAHAWK       NOT AVBL
MERRILL        NOT AVBL
$$

WIZ013-073-291900-
NORTHEAST WISCONSIN

CITY           SKY/WX    TMP DP  RH WIND       PRES   REMARKS
IRON MOUNTAIN  CLOUDY    70  54  56 NW14      29.98F
MARINETTE      MOSUNNY   72  55  56 NW9       29.96F
$$

WIZ017-030-035>037-045-291900-
CENTRAL WISCONSIN

CITY           SKY/WX    TMP DP  RH WIND       PRES   REMARKS
MEDFORD        NOT AVBL
WAUSAU         MOSUNNY   74  54  49 NW13G22   30.03F
MOSINEE        MOSUNNY   73  55  53 NW8       30.06F
MARSHFIELD     MOSUNNY   75  53  46 W9        30.05F
WISC RAPIDS    MOSUNNY   77  52  41 N13       30.06F
STEVENS POINT  NOT AVBL
WAUPACA        NOT AVBL
SHAWANO        NOT AVBL
CLINTONVILLE   NOT AVBL
$$

WIZ038-039-048-051-291900-
FOX VALLEY

CITY           SKY/WX    TMP DP  RH WIND       PRES   REMARKS
NWS GREEN BAY  MOSUNNY   75  57  53 W10       29.99F
APPLETON       PTSUNNY   72  54  53 W10       30.03S
OSHKOSH        MOSUNNY   75  55  49 W13G20    30.01F
FOND DU LAC    MOSUNNY   75  54  47 NW13      30.02F
$$

WIZ022-050-052-291900-
EAST CENTRAL WISCONSIN

CITY           SKY/WX    TMP DP  RH WIND       PRES   REMARKS
STURGEON BAY   PTSUNNY   68  55  64 W7        29.99F
MANITOWOC      NOT AVBL
SHEBOYGAN      MOSUNNY   74  56  53 W8        30.00F
$$

LMZ563-521-522-541>543-291900-
LAKESHORE

STATION/POSITION TIME  TEMP    WIND        PRES    VSBY  WAVE
                       AIR SEA DIR/SP/G                  HT/PER
                 (UTC) (F)     (DEG/KT/KT) (MB)    (MI)  (FT/S)
SHEBOYGAN LKSHOR 1700   68      80/  5/  6 1016.2F
KEWAUNEE LKSHORE 1700   72     280/  4/  7 1016.2F
NORTHPORT PIER   1700   64     350/  5/  6 1015.2S
N MID LAKE BUOY  1700   57 55  270/  6/  6 1014.9R         1
S GREEN BAY BUOY 1700   66 67  230/  4     1016.4F
CHAMBERS ISLAND  1700   69     270/  1/  6 1015.2F
MENOMINEE LKSHOR 1700   64     130/  7/  8 1015.7F
$$



USA.gov is the U.S. government's official web portal to all federal, state and local government web resources and services.